Location: Brachbach
(49.1847°N, 9.7240°E)
Time: 07:53:03
(UTC+00:00)

FO-29 - Pass Details

Date: 19 March 2026
Orbit: 801 x 1320 km, 98.5° (Epoch: 17 April)

Event Time Altitude Azimuth Distance (km) Brightness Sun altitude
Rises 20:50:57 0° 11° (N) 4,142 13.2 -30.6°
Reaches altitude 10° 20:53:37 10° 6° (N) 3,227 12.6 -30.9°
Maximum altitude 21:00:49 50° 295° (WNW) 1,617 10.8 -31.7°
Drops below altitude 10° 21:08:17 10° 223° (SW) 3,343 12.2 -32.6°
Sets 21:11:05 0° 219° (SW) 4,301 12.8 -32.9°
